Location: Mexico
(19.4000°N, 99.1500°W)
Time: 11:22:06
(UTC-06:00)

ISS - Pass Details

Date: 16 January 2020
Orbit: 415 x 422 km, 51.6° (Epoch: 23 January)

Event Time Altitude Azimuth Distance (km) Brightness Sun altitude
Rises 18:57:55 0° 207° (SSW) 2,355 0.8 -9.4°
Reaches altitude 10° 19:00:04 10° 201° (SSW) 1,493 -0.4 -9.8°
Maximum altitude 19:03:17 45° 127° (SE) 576 -3.3 -10.6°
Enters shadow 19:05:38 17° 58° (ENE) 1,160 -2.1 -11.1°
